GW1986 Weather Reports


time (UTC)temp
F
wind
direction
speed
knots
gust
knots
rain 1hr
in
rain 24hr
in
rain mn
in
humidity
%
barometer
mb
20260906232518 64 317 5.2 10.4 0.00 0.09 0.07 75 1015.8
20260906232018 64 355 5.2 9.6 0.00 0.09 0.07 74 1015.9
20260906231543 65 298 1.7 7.8 0.00 0.09 0.07 75 1016.0
20260906231017 64 340 0.9 12.2 0.00 0.09 0.07 76 1016.2
20260906230518 64 329 6.1 12.2 0.00 0.09 0.07 76 1016.2
20260906230038 64 340 2.6 7.8 0.00 0.09 0.07 76 1016.4
20260906225518 63 322 5.2 8.7 0.00 0.09 0.07 76 1016.4
20260906225022 63 321 4.3 8.7 0.00 0.09 0.07 77 1016.6
20260906224554 62 273 5.2 8.7 0.00 0.09 0.07 78 1016.6
20260906224017 62 303 6.1 8.7 0.00 0.09 0.07 78 1016.7
20260906223520 62 253 5.2 7.8 0.00 0.09 0.07 78 1016.7
20260906223046 62 257 5.2 8.7 0.00 0.09 0.07 79 1016.8
20260906222520 62 254 5.2 10.4 0.00 0.09 0.07 79 1016.7
20260906222022 62 242 6.1 10.4 0.00 0.09 0.07 80 1016.8
20260906221545 61 236 6.1 9.6 0.00 0.09 0.07 80 1016.6
20260906221017 61 232 6.1 9.6 0.00 0.09 0.07 80 1016.8
20260906220517 61 229 6.1 8.7 0.00 0.09 0.07 81 1016.9
20260906220045 61 242 6.1 8.7 0.00 0.09 0.07 81 1016.9
20260906215522 61 250 5.2 7.8 0.00 0.09 0.07 81 1017.0
20260906215018 61 244 5.2 7.8 0.00 0.09 0.07 81 1016.9
20260906214548 61 213 5.2 8.7 0.00 0.09 0.07 82 1016.9
20260906214017 61 248 4.3 8.7 0.00 0.09 0.07 82 1016.9
20260906213519 61 250 5.2 8.7 0.00 0.09 0.07 82 1016.7
20260906213044 61 232 5.2 8.7 0.00 0.09 0.07 82 1016.8
20260906212519 61 241 5.2 8.7 0.00 0.09 0.07 82 1016.8
20260906212019 61 250 5.2 7.8 0.00 0.09 0.07 83 1016.7
20260906211548 61 243 5.2 8.7 0.00 0.09 0.07 82 1016.7
20260906211019 61 244 5.2 9.6 0.00 0.09 0.07 83 1016.7
20260906210519 61 259 5.2 8.7 0.00 0.09 0.07 83 1016.5
20260906210058 61 249 5.2 7.8 0.00 0.09 0.07 83 1016.6
20260906205518 61 256 6.1 13.0 0.00 0.09 0.07 83 1016.5
20260906205017 61 242 6.1 13.0 0.00 0.09 0.07 83 1016.5
20260906204547 61 213 7.0 12.2 0.00 0.09 0.07 83 1016.5
20260906204017 61 250 6.1 10.4 0.00 0.09 0.07 82 1016.6
20260906203518 62 224 7.0 10.4 0.00 0.09 0.07 81 1016.6
20260906203043 62 297 8.7 11.3 0.00 0.09 0.07 80 1016.8
20260906202517 62 302 4.3 10.4 0.00 0.09 0.07 79 1016.8
20260906202019 63 347 5.2 10.4 0.00 0.09 0.07 78 1016.8
20260906201543 63 15 0.9 7.0 0.00 0.09 0.07 76 1016.8
20260906201025 63 98 3.5 7.8 0.00 0.09 0.07 76 1016.8
20260906200519 63 93 4.3 7.8 0.00 0.09 0.07 76 1016.8
20260906200052 63 92 2.6 6.1 0.00 0.09 0.07 75 1016.8
20260906195517 63 68 3.5 8.7 0.00 0.09 0.07 75 1016.7
20260906195017 63 82 2.6 8.7 0.00 0.09 0.07 76 1016.6
20260906194547 63 119 0.9 6.1 0.00 0.09 0.07 75 1016.8
20260906194019 63 153 0.0 4.3 0.00 0.09 0.07 74 1016.9
20260906193521 63 153 0.0 3.5 0.00 0.09 0.07 74 1017.0
20260906193045 63 174 0.9 4.3 0.00 0.09 0.07 75 1017.0
20260906192519 63 96 0.0 3.5 0.00 0.09 0.07 74 1017.0
20260906192019 63 89 0.9 4.3 0.00 0.09 0.07 75 1017.0
20260906191546 63 78 1.7 3.5 0.00 0.09 0.07 75 1017.0
20260906191018 63 83 0.9 7.0 0.00 0.09 0.07 75 1017.0
20260906190518 63 94 3.5 7.8 0.00 0.09 0.07 75 1017.0
20260906190047 63 44 3.5 6.1 0.00 0.09 0.07 76 1017.0
20260906185519 63 47 4.3 10.4 0.00 0.09 0.07 76 1017.0
20260906185019 63 73 6.1 11.3 0.00 0.09 0.07 77 1017.0
20260906184546 62 59 7.0 11.3 0.00 0.09 0.07 76 1017.0
20260906184019 62 59 7.0 12.2 0.00 0.09 0.07 79 1016.9
20260906183522 62 34 8.7 15.6 0.00 0.09 0.07 82 1016.9
20260906183044 61 40 8.7 15.6 0.00 0.09 0.07 82 1016.9
20260906182522 61 67 10.4 13.9 0.00 0.09 0.07 83 1016.7
20260906182020 61 72 8.7 13.0 0.00 0.09 0.07 85 1017.1
20260906181555 60 55 9.6 13.0 0.00 0.09 0.07 85 1017.1
20260906181016 60 42 7.8 12.2 0.01 0.09 0.07 86 1017.1
20260906180520 60 31 7.8 12.2 0.01 0.09 0.07 88 1017.4
20260906180051 59 5 8.7 12.2 0.01 0.09 0.07 89 1017.3
20260906175518 58 352 8.7 12.2 0.01 0.09 0.07 89 1017.4
20260906175020 58 5 9.6 13.9 0.01 0.09 0.07 90 1017.5
20260906174544 57 360 8.7 13.9 0.01 0.09 0.07 90 1017.4
20260906174020 57 13 8.7 13.0 0.01 0.09 0.07 91 1017.4
20260906173519 56 13 9.6 14.8 0.01 0.09 0.07 91 1017.8
20260906173100 56 41 10.4 15.6 0.01 0.09 0.07 91 1017.9
20260906172516 55 23 11.3 16.5 0.01 0.09 0.07 91 1018.1
20260906172022 55 19 13.0 16.5 0.01 0.09 0.07 92 1017.9
20260906171550 55 15 9.6 13.9 0.01 0.09 0.07 91 1018.1
20260906171024 54 330 10.4 13.9 0.00 0.08 0.06 91 1018.4
20260906170517 54 304 8.7 17.4 0.00 0.08 0.06 91 1018.9
20260906170045 55 294 7.8 15.6 0.00 0.08 0.06 91 1019.0
20260906165518 55 304 12.2 17.4 0.00 0.08 0.06 91 1018.9
20260906165018 55 279 5.2 17.4 0.00 0.08 0.06 91 1019.0
20260906164545 55 262 13.9 17.4 0.00 0.08 0.06 91 1018.8
20260906164020 56 254 8.7 14.8 0.00 0.08 0.06 91 1018.8
20260906163519 56 260 4.3 6.1 0.00 0.08 0.06 92 1018.8
20260906163052 56 333 0.0 7.0 0.00 0.08 0.06 92 1018.7
20260906162519 55 347 3.5 8.7 0.00 0.08 0.06 91 1018.8
20260906162017 55 355 5.2 11.3 0.00 0.08 0.06 91 1018.5
20260906161546 55 352 7.8 13.9 0.00 0.08 0.06 91 1018.5
20260906161023 55 342 8.7 13.9 0.00 0.08 0.06 91 1018.3
20260906160518 55 337 9.6 13.9 0.00 0.08 0.06 91 1018.4
20260906160057 55 348 8.7 13.9 0.00 0.08 0.06 92 1018.6
20260906155517 54 346 7.0 11.3 0.01 0.08 0.06 92 1018.7
20260906155022 54 335 7.8 10.4 0.01 0.08 0.06 93 1018.7
20260906154557 53 344 7.0 11.3 0.01 0.08 0.06 92 1019.1
20260906154018 53 327 7.8 13.0 0.01 0.08 0.06 92 1019.1
20260906153523 53 304 10.4 13.0 0.01 0.08 0.06 92 1019.1
20260906153046 53 324 8.7 13.9 0.02 0.08 0.06 92 1019.3
20260906152521 53 311 9.6 13.9 0.02 0.08 0.06 92 1019.4
20260906152021 53 304 9.6 15.6 0.02 0.08 0.06 92 1019.3
20260906151545 53 323 10.4 17.4 0.04 0.08 0.06 93 1019.2
20260906151018 53 320 13.0 17.4 0.06 0.08 0.06 93 1019.2
20260906150518 53 311 12.2 20.0 0.06 0.08 0.06 93 1019.2
20260906150040 53 296 12.2 20.0 0.06 0.08 0.06 93 1019.2
20260906145520 53 303 13.9 19.1 0.04 0.08 0.04 92 1019.4
20260906145016 53 323 11.3 18.2 0.04 0.08 0.04 92 1019.4
20260906144550 53 278 10.4 17.4 0.04 0.08 0.04 92 1019.6
20260906144021 53 287 13.0 20.9 0.04 0.08 0.04 92 1019.6
20260906143517 52 290 15.6 22.6 0.04 0.08 0.04 91 1019.4
20260906143106 53 310 14.8 24.3 0.04 0.07 0.04 91 1019.6
20260906142522 53 284 13.9 24.3 0.04 0.07 0.04 90 1019.9
20260906142020 54 272 14.8 22.6 0.03 0.06 0.03 89 1019.9
20260906141555 55 282 13.0 20.9 0.02 0.04 0.02 88 1019.8
20260906141019 56 213 7.0 15.6 0.00 0.03 0.00 88 1019.6
20260906140521 55 257 7.0 14.8 0.00 0.03 0.00 87 1019.5
20260906140051 56 241 9.6 14.8 0.00 0.03 0.00 83 1019.5
20260906135518 59 257 1.7 7.8 0.00 0.08 0.00 84 1019.8
20260906135018 59 54 3.5 7.8 0.00 0.08 0.00 84 1019.2
20260906134551 59 59 5.2 9.6 0.00 0.08 0.00 83 1019.1
20260906134017 59 67 7.0 9.6 0.00 0.08 0.00 83 1019.1
20260906133520 59 54 5.2 8.7 0.00 0.08 0.00 82 1019.0
20260906133050 59 59 5.2 10.4 0.00 0.08 0.00 82 1019.1
20260906132517 59 61 5.2 12.2 0.00 0.08 0.00 81 1019.1
20260906132017 59 61 8.7 13.9 0.00 0.08 0.00 81 1019.0
20260906131554 60 51 8.7 13.9 0.00 0.08 0.00 80 1019.0
20260906131019 59 47 7.0 12.2 0.00 0.08 0.00 80 1018.9
20260906130519 59 43 7.0 10.4 0.00 0.08 0.00 80 1018.9
20260906130052 59 35 3.5 8.7 0.00 0.08 0.00 80 1019.0
20260906125517 58 360 2.6 8.7 0.00 0.08 0.00 80 1019.0
20260906125020 58 311 4.3 9.6 0.00 0.08 0.00 82 1019.2
20260906124552 57 340 4.3 13.9 0.00 0.08 0.00 82 1019.0
20260906124020 58 333 8.7 13.9 0.00 0.08 0.00 79 1019.3
20260906123519 60 340 5.2 12.2 0.00 0.08 0.00 79 1019.4
20260906123054 60 360 8.7 16.5 0.00 0.08 0.00 79 1019.1
20260906122518 59 18 10.4 22.6 0.00 0.08 0.00 80 1018.5
20260906122018 59 27 8.7 23.5 0.00 0.08 0.00 81 1019.2
20260906121552 58 337 13.0 23.5 0.00 0.08 0.00 85 1018.7
20260906121020 56 344 11.3 15.6 0.00 0.08 0.00 87 1018.9
20260906120518 55 340 7.8 14.8 0.00 0.08 0.00 86 1019.2
20260906120048 57 298 11.3 14.8 0.00 0.08 0.00 83 1019.2
20260906115516 58 28 7.8 13.0 0.00 0.08 0.00 85 1018.8
20260906115020 57 27 7.8 12.2 0.00 0.08 0.00 85 1018.9
20260906114549 57 51 5.2 10.4 0.00 0.08 0.00 85 1019.2
20260906114023 56 39 3.5 5.2 0.00 0.08 0.00 84 1019.3
20260906113520 56 39 1.7 3.5 0.00 0.08 0.00 84 1019.6
20260906113048 56 29 0.0 4.3 0.00 0.08 0.00 83 1019.5
20260906112519 56 18 1.7 7.0 0.00 0.08 0.00 83 1019.4
20260906112024 56 25 2.6 8.7 0.00 0.08 0.00 83 1019.5
20260906111550 56 17 6.1 9.6 0.00 0.08 0.00 83 1019.2
20260906111018 56 21 5.2 9.6 0.00 0.08 0.00 83 1019.3
20260906110516 56 22 6.1 9.6 0.00 0.08 0.00 82 1019.1
20260906110044 56 31 5.2 8.7 0.00 0.08 0.00 83 1019.2
20260906105523 56 47 4.3 6.1 0.00 0.08 0.00 84 1019.1
20260906105021 55 67 1.7 4.3 0.00 0.08 0.00 86 1019.2
20260906104545 55 32 0.0 3.5 0.00 0.08 0.00 87 1018.9
20260906104019 55 250 0.0 1.7 0.00 0.08 0.00 89 1019.1
20260906103517 55 250 0.0 0.9 0.00 0.08 0.00 89 1019.3
20260906103055 55 360 0.0 0.0 0.00 0.08 0.00 88 1019.4
20260906102517 55 360 0.0 4.3 0.00 0.08 0.00 88 1019.3
20260906102019 55 360 0.0 4.3 0.00 0.08 0.00 88 1019.4
20260906101553 55 348 2.6 4.3 0.00 0.08 0.00 88 1019.3
20260906101018 55 10 1.7 4.3 0.00 0.08 0.00 88 1019.2
20260906100519 55 360 2.6 4.3 0.00 0.08 0.00 88 1019.3
20260906100046 56 5 2.6 7.8 0.00 0.08 0.00 88 1019.5
20260906095520 56 360 5.2 8.7 0.00 0.08 0.00 88 1019.5
20260906095018 56 352 5.2 8.7 0.00 0.08 0.00 88 1019.5
20260906094556 55 347 4.3 12.2 0.00 0.08 0.00 88 1019.4
20260906094017 56 360 7.8 15.6 0.00 0.08 0.00 88 1019.4
20260906093518 56 5 10.4 15.6 0.00 0.08 0.00 88 1019.4
20260906093113 55 11 8.7 13.9 0.00 0.08 0.00 89 1019.5
20260906092518 55 360 10.4 13.9 0.00 0.08 0.00 89 1019.5
20260906092018 55 344 7.8 16.5 0.00 0.08 0.00 89 1019.6
20260906091550 55 312 10.4 16.5 0.00 0.08 0.00 89 1019.6
20260906091022 55 352 11.3 15.6 0.00 0.08 0.00 90 1019.7
20260906090518 55 340 11.3 15.6 0.00 0.08 0.00 89 1019.9
20260906090048 55 304 10.4 15.6 0.00 0.08 0.00 88 1020.3
20260906085518 56 320 9.6 17.4 0.00 0.08 0.00 88 1020.4
20260906085023 56 311 11.3 17.4 0.00 0.08 0.00 88 1020.6
20260906084555 56 284 9.6 20.0 0.00 0.08 0.00 88 1020.7
20260906084020 56 316 13.9 20.9 0.00 0.08 0.00 87 1020.7
20260906083520 56 317 15.6 20.9 0.00 0.08 0.00 87 1020.2
20260906083053 56 292 12.2 22.6 0.00 0.08 0.00 87 1020.4
20260906082519 56 296 16.5 22.6 0.00 0.08 0.00 89 1020.1
20260906082018 55 267 8.7 21.7 0.00 0.08 0.00 90 1021.1
20260906081554 55 267 14.8 21.7 0.00 0.08 0.00 90 1020.9
20260906081021 55 236 8.7 15.6 0.00 0.08 0.00 90 1020.9
20260906080519 55 330 9.6 19.1 0.00 0.08 0.00 90 1020.2
20260906080100 55 5 13.9 17.4 0.00 0.08 0.00 90 1019.8
20260906075518 55 327 13.0 17.4 0.00 0.08 0.00 89 1019.6
20260906075020 55 325 11.3 17.4 0.00 0.08 0.00 89 1019.8
20260906074555 56 321 11.3 14.8 0.00 0.08 0.00 89 1019.8
20260906074026 56 302 9.6 12.2 0.00 0.08 0.00 89 1019.9
20260906073520 56 347 7.0 11.3 0.00 0.08 0.00 89 1020.1
20260906073056 55 343 7.8 11.3 0.00 0.08 0.00 89 1019.9
20260906072520 55 23 5.2 16.5 0.00 0.08 0.00 89 1019.9
20260906072019 56 360 13.0 19.1 0.00 0.08 0.00 89 1019.8
20260906071559 56 351 14.8 20.9 0.00 0.08 0.00 89 1019.9
20260906071021 56 352 16.5 20.9 0.00 0.08 0.00 88 1019.8
20260906070520 56 5 14.8 20.9 0.00 0.08 0.00 88 1020.0
20260906070043 56 342 15.6 20.9 0.00 0.08 0.00 88 1020.0
20260906065518 56 360 15.6 20.0 0.00 0.08 0.00 88 1020.0
20260906065020 56 338 13.9 19.1 0.00 0.08 0.00 89 1020.3
20260906064555 56 360 13.9 19.1 0.00 0.08 0.00 89 1020.7
20260906064021 55 338 12.2 16.5 0.00 0.08 0.00 89 1020.6
20260906063519 55 311 12.2 18.2 0.00 0.08 0.00 89 1020.6
20260906063046 55 325 13.9 20.0 0.00 0.08 0.00 89 1020.7
20260906062517 55 316 15.6 20.0 0.00 0.08 0.00 89 1020.7
20260906062020 55 300 15.6 20.9 0.00 0.08 0.00 89 1020.9
20260906061555 55 318 16.5 20.9 0.00 0.08 0.00 88 1020.9
20260906061019 55 288 14.8 19.1 0.00 0.08 0.00 88 1021.0
20260906060517 56 300 11.3 16.5 0.00 0.08 0.00 87 1021.1
20260906060053 56 333 12.2 16.5 0.00 0.08 0.00 87 1020.7
20260906055519 56 348 11.3 15.6 0.00 0.08 0.08 87 1020.6
20260906055026 56 352 10.4 17.4 0.00 0.08 0.08 87 1020.8
20260906054554 56 346 11.3 18.2 0.00 0.08 0.08 87 1020.9
20260906054021 55 337 13.9 20.0 0.00 0.08 0.08 87 1020.4
20260906053520 55 337 13.9 20.0 0.00 0.08 0.08 86 1020.6
20260906053053 55 324 13.9 18.2 0.00 0.08 0.08 86 1020.4
20260906052520 56 344 11.3 18.2 0.00 0.08 0.08 87 1020.4
20260906052018 55 352 12.2 17.4 0.00 0.08 0.08 87 1020.6
20260906051555 55 334 10.4 13.9 0.00 0.08 0.08 87 1020.7
20260906051019 56 339 11.3 13.9 0.00 0.08 0.08 86 1020.4
20260906050522 56 342 10.4 15.6 0.00 0.08 0.08 86 1020.5
20260906050131 56 352 12.2 15.6 0.00 0.08 0.08 86 1020.7
20260906045522 56 323 10.4 14.8 0.00 0.08 0.08 87 1020.7
20260906045023 56 307 11.3 13.9 0.00 0.08 0.08 86 1020.5
20260906044556 56 328 9.6 12.2 0.00 0.08 0.08 86 1020.6
20260906044017 56 329 5.2 9.6 0.00 0.08 0.08 86 1021.3
20260906043519 56 329 5.2 12.2 0.00 0.08 0.08 86 1020.8
20260906043050 56 340 9.6 12.2 0.00 0.08 0.08 86 1020.3
20260906042519 56 340 7.8 13.9 0.01 0.08 0.08 87 1020.2
20260906042017 56 351 9.6 15.6 0.02 0.08 0.08 87 1019.8
20260906041543 55 339 10.4 16.5 0.02 0.08 0.08 87 1019.5
20260906041018 56 329 13.0 18.2 0.02 0.08 0.08 86 1019.9
20260906040519 56 327 13.0 18.2 0.02 0.08 0.08 87 1019.9
20260906040048 55 317 12.2 20.0 0.02 0.08 0.08 87 1020.1
20260906035515 56 337 13.0 20.0 0.02 0.08 0.08 87 1019.7
20260906035016 56 331 13.9 20.9 0.02 0.08 0.08 85 1020.2
20260906034546 56 348 14.8 20.0 0.02 0.08 0.08 85 1020.1
20260906034019 56 348 14.8 19.1 0.02 0.08 0.08 85 1020.4
20260906033519 56 325 11.3 15.6 0.02 0.08 0.08 83 1020.7
20260906033041 57 302 10.4 13.9 0.02 0.08 0.08 80 1021.0
20260906032517 58 306 8.7 10.4 0.00 0.06 0.06 76 1021.6
20260906032019 59 334 5.2 10.4 0.00 0.06 0.06 73 1021.6
20260906031546 60 348 7.0 13.0 0.00 0.06 0.06 71 1021.5
20260906031016 60 333 7.8 13.9 0.00 0.06 0.06 70 1020.8
20260906030519 60 317 9.6 14.8 0.00 0.06 0.06 70 1020.2
20260906030045 60 326 8.7 14.8 0.00 0.06 0.06 70 1019.8
20260906025517 60 360 10.4 14.8 0.00 0.06 0.06 70 1019.3
20260906025019 60 349 9.6 15.6 0.00 0.06 0.06 70 1019.2
20260906024544 60 348 11.3 15.6 0.00 0.06 0.06 70 1018.8
20260906024017 60 355 11.3 15.6 0.00 0.06 0.06 70 1018.7
20260906023516 60 5 11.3 17.4 0.00 0.06 0.06 70 1018.5
20260906023047 60 5 12.2 18.2 0.00 0.06 0.06 70 1018.4
20260906022516 60 352 13.0 18.2 0.00 0.06 0.06 69 1018.5
20260906022018 60 347 12.2 17.4 0.00 0.06 0.06 69 1018.8
20260906021605 61 352 13.0 17.4 0.00 0.06 0.06 68 1018.6
20260906021017 61 345 12.2 15.6 0.00 0.06 0.06 68 1018.7
20260906020521 61 343 9.6 13.9 0.00 0.06 0.06 68 1018.8
20260906020045 61 355 11.3 13.9 0.00 0.06 0.06 68 1018.7
20260906015517 62 346 10.4 13.0 0.00 0.06 0.06 67 1018.7
20260906015018 62 352 9.6 13.9 0.00 0.06 0.06 67 1018.7
20260906014543 62 344 9.6 13.9 0.00 0.06 0.06 67 1018.8
20260906014018 62 351 10.4 13.9 0.00 0.06 0.06 67 1018.8
20260906013519 62 348 9.6 13.9 0.00 0.06 0.06 67 1018.7
20260906013047 62 337 10.4 13.0 0.00 0.06 0.06 67 1018.9
20260906012518 62 337 8.7 12.2 0.00 0.06 0.06 67 1018.8
20260906012021 63 345 8.7 14.8 0.00 0.06 0.06 67 1018.9
20260906011541 63 351 10.4 14.8 0.00 0.06 0.06 66 1018.7
20260906011021 63 340 10.4 17.4 0.00 0.06 0.06 66 1018.7
20260906010519 63 349 12.2 18.2 0.00 0.06 0.06 66 1018.7
20260906010046 63 340 13.0 19.1 0.00 0.06 0.06 66 1018.7
20260906005522 63 350 13.9 19.1 0.00 0.06 0.06 66 1018.7
20260906005019 63 337 12.2 18.2 0.00 0.06 0.06 66 1018.8
20260906004549 63 345 13.0 18.2 0.00 0.06 0.06 66 1018.7
20260906004018 63 344 13.0 17.4 0.00 0.06 0.06 65 1018.7
20260906003522 64 352 12.2 17.4 0.00 0.06 0.06 63 1018.8
20260906003055 65 5 13.0 17.4 0.00 0.06 0.06 62 1018.9
20260906002523 66 352 13.0 17.4 0.00 0.06 0.06 60 1018.8
20260906002020 67 352 10.4 14.8 0.00 0.06 0.06 58 1018.9
20260906001544 67 331 11.3 15.6 0.00 0.06 0.06 59 1019.0
20260906001019 67 342 10.4 16.5 0.00 0.06 0.06 59 1019.0
20260906000519 67 336 11.3 16.5 0.00 0.06 0.06 57 1019.0
20260906000046 67 350 8.7 13.0 0.00 0.06 0.06 56 1018.9
20260905235517 68 323 8.7 13.9 0.00 0.06 0.06 56 1019.2
20260905235018 68 330 10.4 13.9 0.00 0.06 0.06 56 1019.2
20260905234554 68 325 9.6 17.4 0.00 0.06 0.06 57 1019.4
20260905234018 68 306 11.3 17.4 0.00 0.06 0.06 56 1019.4
20260905233518 68 344 8.7 15.6 0.00 0.06 0.06 56 1019.4
20260905233047 69 343 10.4 15.6 0.00 0.06 0.06 55 1019.5